Date,TemperatureHighF,TemperatureAvgF,TemperatureLowF,DewpointHighF,DewpointAvgF,DewpointLowF,HumidityHigh,HumidityAvg,HumidityLow,PressureMaxIn,PressureMinIn,WindSpeedMaxMPH,WindSpeedAvgMPH,GustSpeedMaxMPH,PrecipitationSumIn
2013-2-1,26.2,22.1,15.8,21.5,12.3,5.1,86,66,54,29.55,29.00,26,15,33,0.00
2013-2-2,23.4,18.2,11.5,17.3,9.1,4.0,89,68,50,29.69,29.52,15,6,18,0.00
2013-2-3,28.6,22.8,16.5,21.0,16.7,14.8,98,78,59,29.53,29.20,4,1,7,0.00
2013-2-4,27.0,21.4,15.8,21.6,11.5,2.1,98,67,40,29.37,29.17,32,13,34,0.00
2013-2-5,30.9,17.8,8.8,12.8,5.5,-0.2,71,59,37,29.52,29.37,12,4,15,0.00
2013-2-6,33.6,23.0,15.8,24.8,15.7,-3.9,99,75,38,29.80,29.42,18,6,22,0.00
2013-2-7,25.2,16.1,10.6,4.8,-0.4,-4.0,60,48,33,30.02,29.78,16,7,20,0.00
2013-2-8,17.1,14.6,11.5,14.9,10.3,-1.5,99,85,44,30.00,29.34,6,2,11,0.00
2013-2-9,19.0,15.3,9.9,18.8,12.2,1.8,99,88,68,29.69,29.26,16,8,22,0.00
2013-2-10,33.3,17.5,5.5,12.6,4.3,-5.6,85,57,37,29.87,29.68,19,5,25,0.00
2013-2-11,29.7,18.5,2.8,29.4,17.5,-0.9,99,96,78,29.83,29.10,7,1,9,0.00
2013-2-12,39.6,35.4,29.5,33.9,32.3,29.1,99,89,75,29.32,29.07,19,10,24,0.06
2013-2-13,37.2,30.9,22.1,29.5,25.5,19.6,99,80,62,29.34,29.23,14,6,19,0.00
2013-2-14,38.7,27.2,17.2,28.6,23.4,15.4,99,86,63,29.48,29.21,10,2,13,0.00
2013-2-15,49.3,31.2,16.7,37.2,26.2,16.5,99,83,56,29.47,29.36,9,2,13,0.00
2013-2-16,36.9,31.7,24.6,30.6,25.2,12.2,99,77,59,29.45,29.25,10,5,13,0.00
2013-2-17,25.0,17.3,11.5,16.5,10.8,4.4,99,76,57,29.25,28.84,35,16,42,0.00
2013-2-18,26.1,16.3,8.6,7.9,3.5,-0.3,76,58,36,29.57,29.10,29,18,39,0.00
2013-2-19,37.8,27.5,14.7,35.0,15.9,-1.4,99,64,33,29.64,29.06,15,3,19,0.06
2013-2-20,34.3,29.0,20.7,34.1,25.0,16.8,99,85,70,29.21,28.98,22,13,28,0.07
2013-2-21,25.0,21.0,16.0,19.7,15.4,9.8,93,79,67,29.71,29.19,21,12,27,0.00
2013-2-22,38.3,28.1,15.1,27.8,22.4,14.2,99,80,51,29.90,29.71,11,3,17,0.00
2013-2-23,36.0,31.4,27.0,34.7,30.5,25.9,99,96,90,29.83,29.47,4,1,6,0.00
2013-2-24,34.5,31.5,28.6,34.3,31.2,28.3,99,99,99,29.47,29.26,0,0,1,0.02
2013-2-25,40.5,30.2,14.7,39.0,29.9,14.5,99,99,92,29.73,29.40,3,0,6,0.01
2013-2-26,40.5,34.5,30.7,38.0,33.6,30.5,99,97,86,29.84,29.70,6,1,8,0.31
2013-2-27,36.3,32.8,30.7,36.1,32.6,30.5,99,99,99,29.70,29.16,4,1,8,0.20
2013-2-28,44.1,34.9,30.6,42.4,34.3,30.3,99,98,85,29.16,29.03,3,0,4,0.25